Wind_Speed
37 38 39 40 41 42 42 42 43 44 44 44 44 44 44 45 45 45 46 45 46 46 46 45 43 42 41 39 37 35 33 32 31 30 29 27 26 25
36 37 38 39 40 41 42 43 44 44 45 45 45 45 45 46 46 46 46 45 46 46 46 46 45 43 42 41 39 37 35 33 32 31 29 27 26 25
35 36 37 38 40 41 42 42 43 44 45 46 47 47 46 46 47 46 46 46 46 47 47 47 46 45 44 42 40 38 36 34 33 31 29 27 26 24
35 36 37 38 40 41 42 43 44 44 45 45 47 48 48 46 46 48 47 47 47 47 48 48 47 46 45 43 42 40 38 36 34 32 31 28 27 25
36 37 38 39 40 42 43 44 45 46 46 46 46 47 49 48 48 48 48 48 47 47 47 48 47 47 46 45 43 42 40 37 35 33 32 30 28 26
35 36 37 39 40 42 43 44 46 47 47 47 47 48 50 50 50 50 49 48 48 48 48 48 47 47 47 47 45 44 42 39 37 35 34 32 30 28
34 35 37 38 39 40 42 43 45 46 47 47 48 48 50 51 51 51 51 50 49 49 50 50 49 48 48 48 46 45 43 41 39 37 35 34 32 29
34 35 36 36 37 38 39 41 43 45 46 47 48 49 50 51 52 52 52 51 50 49 50 51 51 50 49 49 48 46 44 42 41 39 37 35 33 31
32 33 33 34 35 36 38 40 41 43 45 47 48 48 50 52 52 54 54 52 51 49 49 51 51 51 51 49 49 47 45 44 43 42 40 37 35 32
30 31 32 33 34 35 37 38 40 42 44 45 47 48 50 52 53 54 55 53 51 49 49 50 52 52 52 51 49 48 47 46 45 44 41 39 36 34
29 30 30 32 34 35 35 37 38 41 43 45 46 48 50 53 54 54 54 55 52 51 50 49 51 52 52 52 51 49 48 47 47 45 43 41 39 36
29 30 30 31 32 33 34 36 37 39 41 43 45 47 49 52 54 55 54 55 55 53 52 49 49 51 52 52 52 51 49 48 47 46 44 43 41 39
29 28 29 29 29 30 31 33 36 38 40 41 44 46 48 50 53 55 56 55 55 55 53 52 50 51 52 51 51 51 50 49 48 47 46 44 42 40
27 27 27 27 28 28 29 31 33 36 38 40 42 44 47 49 52 54 55 57 56 55 53 54 52 51 50 52 51 51 50 49 48 48 47 46 44 42
26 25 25 26 26 26 27 28 30 33 36 37 39 41 44 48 51 53 54 55 56 55 54 54 53 52 51 52 52 51 50 50 49 49 48 47 45 43
25 24 23 24 24 24 24 25 27 30 33 35 37 39 41 45 49 52 52 53 55 55 55 54 53 53 52 52 53 52 51 51 50 50 49 48 47 44
24 22 22 21 21 21 21 22 24 26 29 32 36 37 39 42 45 50 52 52 53 55 56 56 55 54 52 52 53 52 50 51 51 51 50 48 47 45
23 21 19 19 18 17 18 19 20 23 26 29 33 36 37 39 42 46 49 49 51 53 54 55 56 55 53 52 52 51 51 51 51 51 50 48 47 46
21 19 17 15 15 15 15 17 18 20 23 26 29 33 35 37 39 42 45 46 48 50 51 52 54 54 53 53 51 49 50 50 49 48 48 48 47 46
19 17 15 13 12 11 13 15 16 17 20 24 27 30 33 35 37 38 40 42 45 47 48 49 51 52 51 51 50 49 49 48 47 47 47 47 47 46
18 17 14 12 10 10 11 12 14 16 18 21 24 28 31 33 34 36 37 40 43 44 46 47 48 50 50 49 48 47 47 47 47 47 47 46 46 45
17 15 13 11 9 9 9 11 13 15 17 19 22 25 28 30 32 34 35 37 39 42 43 43 45 47 49 48 47 46 46 44 45 46 45 45 44 44
16 14 12 10 9 8 8 10 12 14 16 18 20 23 25 28 30 32 33 34 36 39 41 41 42 43 45 46 46 45 45 45 45 46 45 44 43 43
Wind_Direction
267 264 261 259 256 254 251 248 245 243 242 242 240 240 238 235 233 232 231 229 228 227 226 226 226 226 226 226 227 227 228 227 227 229 231 234 235 236
269 266 262 259 256 255 252 249 246 243 241 240 239 240 238 236 233 231 230 229 227 226 225 224 224 224 224 225 226 226 225 226 227 227 229 231 232 233
271 267 264 261 257 255 253 250 247 244 241 240 239 238 238 236 233 232 231 228 226 225 224 223 222 223 223 224 224 224 224 224 225 225 226 228 230 230
271 268 265 262 259 257 254 251 247 245 242 240 239 238 237 235 233 231 231 229 226 225 223 221 221 221 222 223 223 222 222 222 223 224 224 226 227 228
272 269 266 263 261 258 255 251 248 245 242 240 239 237 236 235 233 231 229 229 226 225 223 221 221 221 222 223 222 222 221 222 223 224 224 224 226 228
274 270 268 265 262 259 255 252 248 245 242 240 238 236 235 234 232 231 229 228 227 224 222 221 221 222 222 222 220 221 221 222 223 223 223 224 225 227
275 272 270 267 263 259 256 252 248 245 242 240 237 236 235 233 231 230 229 228 227 224 222 221 221 222 221 220 219 220 221 221 222 221 222 223 224 226
278 274 270 267 262 259 256 253 249 245 242 240 237 235 234 233 231 228 228 227 226 224 223 221 221 222 221 220 219 220 220 221 221 220 220 222 224 226
282 277 272 267 263 259 256 253 250 247 243 240 237 235 232 231 230 227 225 225 224 224 224 222 221 221 220 220 220 220 220 220 220 219 221 222 224 226
285 279 275 269 263 260 257 253 249 246 243 240 237 234 231 228 227 225 224 223 221 222 223 222 221 220 220 220 220 220 218 219 219 219 221 222 224 225
286 281 277 273 267 262 258 254 249 245 241 239 237 234 231 228 225 223 223 222 221 221 221 223 222 221 220 219 219 219 218 219 219 220 221 222 223 225
290 284 278 274 269 263 258 254 248 243 241 238 235 232 231 228 224 223 222 222 221 221 222 223 222 221 221 219 219 219 219 219 219 220 221 222 223 225
293 287 280 275 270 264 259 254 247 241 239 237 234 231 228 227 225 223 222 221 221 222 222 222 223 222 222 220 220 220 220 220 221 221 221 223 224 225
295 290 284 278 272 266 260 254 247 241 238 236 233 231 227 225 224 223 221 221 220 220 221 221 221 222 222 221 220 220 220 220 221 222 222 222 224 225
298 292 287 282 275 269 261 253 247 242 237 234 232 229 227 224 222 221 220 221 221 220 219 219 220 222 222 222 221 221 222 220 221 222 222 222 224 225
304 296 290 285 278 269 261 253 246 241 236 232 230 227 226 223 221 221 221 222 222 220 219 219 220 221 222 222 220 220 221 221 221 222 222 223 224 225
309 303 294 288 280 270 260 252 245 240 235 230 227 225 223 222 221 220 219 221 220 220 219 219 220 220 221 220 218 219 220 221 221 222 222 224 225 226
314 309 300 290 281 269 257 250 244 238 233 228 225 223 221 220 220 219 219 219 218 218 218 219 220 220 219 219 219 221 220 219 221 223 223 224 225 227
320 316 309 297 283 267 254 246 241 236 230 225 222 219 217 217 216 216 217 217 216 217 218 219 219 219 220 219 220 221 221 220 221 223 225 224 225 227
328 326 319 308 289 268 256 244 235 231 225 222 220 215 213 214 213 214 215 215 214 214 216 217 217 218 219 221 221 223 222 221 222 222 223 224 225 227
330 328 324 314 297 276 260 245 232 225 222 219 214 211 210 210 211 211 211 212 212 212 213 215 216 216 217 219 220 221 222 222 223 222 223 225 226 227
330 328 324 316 302 280 259 242 231 223 217 212 210 209 207 207 208 210 210 212 213 212 212 213 214 216 217 217 217 218 218 220 221 221 221 223 225 226
331 328 325 320 308 286 261 240 228 218 213 212 209 207 206 205 206 207 207 210 212 213 212 213 214 214 215 216 215 216 216 216 217 219 221 222 223 224
Height
5747 5748 5748 5749 5751 5753 5755 5758 5762 5765 5769 5772 5775 5779 5782 5787 5791 5796 5801 5807 5812 5817 5823 5829 5835 5841 5847 5852 5857 5861 5866 5870 5873 5877 5880 5883 5886 5889
5736 5736 5737 5737 5739 5741 5743 5746 5749 5753 5757 5761 5764 5768 5772 5777 5781 5786 5791 5795 5802 5808 5814 5820 5826 5832 5839 5844 5850 5855 5859 5864 5867 5871 5875 5878 5881 5884
5725 5725 5725 5726 5727 5729 5731 5734 5737 5741 5745 5749 5753 5757 5761 5765 5770 5776 5781 5786 5792 5798 5805 5811 5817 5824 5830 5836 5842 5847 5852 5857 5861 5865 5869 5873 5876 5879
5714 5714 5714 5714 5716 5717 5719 5722 5725 5728 5733 5737 5741 5745 5750 5755 5760 5766 5771 5776 5782 5789 5795 5802 5808 5815 5822 5828 5834 5840 5845 5850 5855 5859 5864 5867 5871 5874
5702 5702 5702 5702 5703 5704 5706 5709 5712 5715 5720 5725 5729 5733 5738 5743 5749 5755 5761 5767 5773 5779 5785 5792 5799 5806 5813 5819 5826 5832 5838 5843 5848 5853 5857 5861 5865 5869
5690 5689 5689 5689 5690 5691 5693 5695 5698 5702 5706 5711 5717 5721 5726 5731 5738 5744 5750 5757 5763 5769 5776 5783 5789 5796 5803 5810 5817 5824 5830 5836 5841 5846 5851 5855 5860 5864
5678 5677 5676 5676 5676 5677 5679 5681 5684 5688 5693 5698 5704 5709 5714 5719 5726 5732 5739 5746 5752 5759 5766 5773 5780 5787 5794 5801 5808 5815 5822 5828 5833 5839 5844 5849 5853 5858
5666 5664 5663 5663 5664 5664 5666 5668 5671 5675 5680 5684 5690 5696 5701 5707 5714 5721 5728 5735 5743 5750 5755 5763 5770 5778 5785 5792 5800 5807 5813 5819 5826 5831 5837 5842 5847 5851
5654 5652 5651 5651 5651 5652 5653 5655 5658 5661 5666 5671 5677 5682 5688 5696 5702 5709 5717 5724 5732 5739 5745 5753 5760 5768 5776 5783 5790 5797 5804 5811 5817 5824 5830 5835 5840 5845
5643 5641 5640 5639 5639 5639 5640 5642 5645 5648 5653 5658 5664 5669 5674 5681 5689 5697 5705 5712 5720 5728 5735 5742 5750 5758 5766 5773 5781 5788 5795 5802 5809 5816 5822 5828 5833 5838
5633 5631 5629 5627 5627 5627 5628 5630 5632 5636 5639 5644 5650 5655 5662 5669 5677 5685 5693 5701 5709 5717 5725 5732 5739 5747 5755 5763 5771 5779 5786 5793 5801 5808 5814 5820 5826 5831
5623 5620 5618 5616 5615 5615 5616 5618 5620 5623 5627 5631 5637 5643 5649 5657 5665 5673 5682 5690 5698 5706 5714 5722 5729 5737 5745 5753 5761 5769 5776 5784 5791 5799 5806 5812 5818 5823
5612 5609 5607 5605 5604 5604 5604 5606 5608 5611 5614 5619 5624 5630 5637 5645 5653 5661 5670 5679 5687 5696 5704 5712 5719 5727 5736 5744 5752 5759 5767 5775 5783 5790 5797 5803 5810 5816
5602 5599 5596 5594 5593 5593 5593 5594 5596 5599 5603 5607 5613 5618 5625 5633 5641 5650 5658 5667 5676 5685 5693 5701 5710 5718 5726 5734 5742 5750 5758 5766 5773 5781 5788 5795 5801 5808
5593 5589 5587 5585 5583 5583 5583 5584 5586 5589 5593 5597 5602 5608 5614 5621 5629 5638 5647 5655 5664 5673 5682 5691 5700 5708 5716 5724 5733 5741 5749 5756 5764 5772 5779 5786 5793 5799
5585 5581 5578 5575 5574 5573 5573 5574 5576 5579 5582 5587 5592 5597 5603 5610 5618 5627 5636 5644 5653 5663 5672 5681 5689 5698 5706 5714 5723 5731 5739 5747 5755 5763 5770 5777 5784 5790
5577 5573 5570 5567 5566 5565 5565 5566 5567 5570 5573 5577 5582 5588 5594 5601 5609 5617 5625 5634 5644 5653 5662 5670 5679 5688 5697 5705 5713 5721 5730 5738 5745 5753 5760 5767 5775 5781
5571 5566 5563 5561 5559 5558 5558 5559 5561 5562 5565 5569 5574 5580 5586 5593 5600 5607 5615 5624 5634 5643 5651 5660 5669 5678 5687 5695 5703 5712 5720 5728 5736 5743 5750 5758 5765 5772
5565 5561 5558 5555 5553 5553 5553 5554 5555 5557 5559 5563 5567 5573 5579 5586 5592 5599 5607 5616 5625 5634 5642 5651 5660 5669 5678 5687 5694 5703 5711 5719 5727 5734 5742 5749 5757 5763
5562 5558 5554 5551 5550 5549 5549 5549 5550 5552 5554 5557 5561 5566 5572 5579 5586 5592 5600 5608 5617 5625 5634 5642 5652 5661 5670 5678 5686 5694 5702 5710 5718 5726 5733 5740 5747 5754
5559 5555 5551 5549 5547 5546 5546 5546 5547 5549 5550 5553 5557 5561 5567 5574 5580 5587 5594 5601 5609 5618 5626 5635 5643 5652 5660 5668 5677 5685 5693 5701 5709 5717 5724 5731 5738 5745
5556 5553 5549 5547 5545 5543 5543 5543 5544 5546 5548 5550 5553 5558 5563 5569 5575 5581 5588 5595 5603 5611 5619 5626 5634 5643 5652 5661 5669 5677 5685 5692 5700 5707 5715 5723 5729 5737
5554 5550 5547 5545 5543 5541 5540 5540 5541 5543 5545 5548 5551 5555 5559 5564 5570 5576 5583 5590 5597 5604 5612 5619 5628 5636 5644 5652 5660 5668 5677 5684 5692 5699 5706 5714 5721 5727